Other Surface Observations
Issued by NWS

Current Version | Previous Version | Text Only | Print | Product List | Glossary On
Versions: 1 2 3 4 5 6 7 8 9 10 11 12 13 14 15 16 17 18 19 20 21 22 23 24 25 26 27 28 29 30 31 32 33 34 35 36 37 38 39 40 41 42 43 44 45 46 47 48 49 50
000
SXUS52 KTAE 210705
OSOTAE
OSOTAE
North Florida/South Alabama/Southwest Georgia Weather Roundup
National Weather Service Tallahassee Florida
300 AM EDT TUE OCT 21 2014

Note: "fair" indicates few or no clouds below 12,000 feet with no
significant weather and/or obstructions to visibility.

!FLZ017-115-028-034-025-210800
...North Florida...

CITY           SKY/WX    TMP DP  RH WIND       PRES   REMARKS
TALLAHASSEE    CLEAR     62  57  83 CALM      29.97F
APALACHICOLA   CLEAR     66  61  84 CALM      29.96F
PERRY          CLEAR     63  61  94 CALM      29.98F
CROSS CITY       N/A     63  61  93 CALM      29.97F
JACKSONVILLE   PTCLDY    64  64 100 CALM      29.96F
$$

!FLZ112-006-005-002-011-210800
...Florida Panhandle...

CITY           SKY/WX    TMP DP  RH WIND       PRES   REMARKS
MARIANNA       CLEAR     57  57 100 CALM      29.99S
BONIFAY        NOT AVBL
PANAMA CITY NW FAIR      57  53  86 CALM      29.98S
TYNDALL AFB    CLEAR     64  57  80 NE3       29.99S
TYND DRONE APT FAIR      62  59  88 MISG      29.97S
DE FUNIAK SPR  FAIR      56  52  88 N3        30.00S
EGLIN AFB      CLEAR     58  52  79 N2        30.00R
DESTIN         CLEAR     65  55  70 N8        29.99S
HURLBURT       CLEAR     57  51  80 N6        29.98S
CRESTVIEW      CLEAR     49  49 100 CALM      30.01S
PENSACOLA      CLEAR     59  53  80 N6        30.00S
$$

!ALZ063-066-210800
...South Alabama...

CITY           SKY/WX    TMP DP  RH WIND       PRES   REMARKS
DOTHAN         CLEAR     54  52  93 CALM      30.03S
OZARK CAIRNS   CLEAR     54  52  91 CALM      30.00S
FT RUCKER HELI CLEAR     51  49  92 CALM      30.00S
RUCKER HELI 3  FAIR      53  52  97 NW2       30.03S
RUCKER HELI 2  FAIR      52  50  93 CALM      30.00S
FLORALA APT    CLEAR     59  51  75 VRB5      30.02S
ANDALUSIA      CLEAR     59  50  72 CALM      30.01S
TROY           CLEAR     49  48  97 CALM      30.02S
EUFALA         FAIR      50  49  96 CALM      30.00S FOG
MOBILE         CLEAR     53  52  96 N3        30.02S
$$

!GAZ120>161-210800
...Southwest and South Central Georgia...

CITY           SKY/WX    TMP DP  RH WIND       PRES   REMARKS
THOMASVILLE    FAIR      61  61 100 CALM      29.99S FOG
BAINBRIDGE     CLEAR     61  59  94 NW3       29.99S
MOODY AFB      CLEAR     60  57  90 NW3       29.97F
VALDOSTA       CLEAR     59  55  87 CALM      29.98S
MOULTRIE       CLEAR     59  59 100 CALM      30.00S
BLAKELY        CLEAR     55  54  94 CALM        N/A
ALBANY         PTCLDY    58  56  93 CALM      30.01S
TIFTON         FAIR      57  57  98 CALM      29.99R
FITZGERALD     PTSUNNY   58  55  91 CALM      30.01S
CORDELE        FAIR      56  54  92 CALM      30.00F
AMERICUS       FAIR      52  52 100 CALM      30.02S
HOMERVILLE     FAIR      63  63 100 CALM      29.98S
$$

!GMZ750-755-770-775-210800
...Coastal and Buoy Obs...

STATION/POSITION TIME  TEMP    WIND        PRES    VSBY  WAVE
                       AIR SEA DIR/SP/G                  HT/PER
                 (UTC) (F)     (DEG/KT/KT) (MB)    (MI)  (FT/S)
KEATON BEACH     0700   65      80/  2/  3 1015.3R
CEDAR KEY        0600   71     340/  2/  2 1015.4S
C TOWER          0700   74     350/  8/  9 1014.6S
APALACHICOLA BUO 0600   78 81  310/  4/  6 1014.6F         1/ 5
PANAMA CITY BUOY NOT AVBL
MOBILE BUOY      0646   74 79   30/ 10/ 12 1016.0F         1/ 5
ORANGE BCH AL BU 0600   73 78   20/ 12/ 14 1015.5R         1/ 2
$$



USA.gov is the U.S. government's official web portal to all federal, state and local government web resources and services.